User: anonymous   Login
Location: Newark
(34.3481°N, 134.0494°E)
Time: 22:42:28
(UTC+00:00)
Language:

Courier 1B - Orbit

View from above orbital plane
View from above orbital plane
View from above satellite
View from above satellite

Ground track
Ground track

The orbit data is extracted from the following two-line orbital elements,

1    58U 60013A   20024.53637948 +.00000082 +00000-0 -51817-5 0  9994
2    58 028.3285 109.8292 0165047 309.5116 049.0942 13.46320596919075
Epoch (UTC): 24 January 2020 12:52:23
Eccentricity: 0.0165047
inclination: 28.3285°
perigee height: 962 km
apogee height: 1209 km
right ascension of ascending node: 109.8292°
argument of perigee: 309.5116°
revolutions per day: 13.46320596
mean anomaly at epoch: 49.0942°
orbit number at epoch: 91907

The dashed part of the orbit path shows where the satellite is in the earth's shadow,  

DLR